Location: *
(42.5628°N, 2.3633°E)
Time: 21:12:24
(UTC+00:00)

NOSS 3-3 (A) - Pass Details

Date: 30 March 2020
Orbit: 834 x 1378 km, 63.4° (Epoch: 05 May)

Event Time Altitude Azimuth Distance (km) Brightness Sun altitude
Rises 19:39:07 0° 191° (S) 3,391 6.7 -15.9°
Reaches altitude 10° 19:41:36 10° 184° (S) 2,491 6.0 -16.3°
Maximum altitude 19:46:56 42° 115° (ESE) 1,285 4.2 -17.2°
Drops below altitude 10° 19:52:50 10° 47° (NE) 2,756 6.1 -18.2°
Sets 19:55:43 0° 41° (NE) 3,794 6.9 -18.7°
